Theta_e
346 345 347 350 351 350 348 351 355 353 350 351 351 353 353 352 352 351 352 353 353 351 349 349 349 350 351 350 349 347 347 347 346 345 347 348 347 346 346 346 346 346 346 348 348 349 348 346 346 346 344 347 351 350 350 350 350 349 350 350 350 349 348 347 347 346 346 346 346 347 347 346 347 347 347 346 345 344 345 345 346 345 345 345 345
345 345 344 344 348 351 349 350 354 354 351 350 351 352 353 353 353 353 354 353 353 352 350 350 349 350 351 351 351 349 348 347 346 346 347 348 348 348 347 346 346 346 347 347 348 349 349 348 348 346 344 345 349 350 349 349 349 349 349 349 349 349 348 348 349 348 348 349 350 349 349 349 350 350 349 349 348 347 346 345 344 345 346 346 346
348 348 347 345 345 349 350 350 353 353 350 348 350 353 353 353 353 353 353 353 353 352 350 350 350 350 351 352 352 351 350 349 347 346 346 347 348 348 347 348 349 348 348 348 348 349 349 349 349 347 345 344 346 349 349 348 348 350 350 349 349 350 350 349 349 348 348 349 350 350 350 350 350 350 350 350 349 349 348 346 345 346 347 347 347
351 351 351 350 345 347 349 351 353 352 349 348 350 352 354 353 353 353 353 353 353 352 350 349 350 351 351 351 351 352 352 351 349 347 347 347 347 348 347 348 350 349 349 349 349 349 349 349 348 347 346 344 344 347 349 348 349 350 351 351 350 350 350 350 349 349 348 349 349 350 349 349 349 349 349 350 350 350 349 348 347 346 345 346 346
350 352 353 353 349 348 349 351 352 350 348 348 348 350 352 352 352 352 351 352 351 351 350 349 350 351 351 351 351 351 352 352 352 350 348 346 347 347 349 349 349 351 349 348 349 349 349 349 348 346 346 344 343 346 349 350 350 351 351 350 350 350 350 350 350 349 349 349 349 349 347 346 347 348 349 349 349 350 349 349 348 345 344 344 344
349 352 354 354 352 351 350 351 351 349 349 349 348 349 350 351 350 350 350 350 349 349 349 349 349 350 351 351 352 352 352 352 351 351 350 348 347 347 349 350 348 349 350 349 348 349 349 349 349 347 345 344 344 346 349 350 350 351 351 351 351 350 351 350 350 349 349 349 349 348 347 345 346 348 349 348 347 348 349 348 346 343 342 341 340
351 352 354 354 353 352 351 352 352 351 351 350 349 349 350 350 350 350 350 350 349 348 348 349 349 348 350 350 351 352 351 352 351 352 352 350 348 347 349 350 348 347 349 349 348 349 348 348 348 347 346 344 344 345 348 350 350 349 351 351 351 351 351 350 349 349 350 350 349 348 347 347 347 347 347 345 343 344 345 345 343 343 345 342 337
353 353 354 354 352 353 353 353 353 353 353 354 353 352 352 350 351 351 351 349 349 349 348 348 348 348 350 350 350 351 352 352 351 352 353 352 350 348 348 350 350 347 346 347 347 348 348 348 347 347 346 345 345 346 346 347 347 348 351 351 352 351 351 350 350 350 350 350 350 348 348 348 347 347 346 344 341 342 342 343 345 347 347 345 340
353 354 355 353 352 353 354 354 353 353 354 355 355 354 353 352 352 352 350 349 349 349 349 349 348 347 349 350 349 350 351 353 352 352 352 352 351 349 349 350 351 350 346 344 345 346 347 348 348 347 347 346 346 346 345 345 344 347 351 352 352 352 351 350 350 350 349 349 349 348 348 348 348 348 348 347 343 342 342 343 347 349 349 348 345
354 355 355 355 353 353 353 355 355 354 353 354 354 354 354 353 352 351 350 349 348 349 349 348 348 348 348 348 349 349 350 352 352 352 352 352 352 351 350 350 351 351 349 345 343 344 345 346 347 347 347 346 346 346 345 345 343 345 350 351 351 351 351 350 350 350 349 349 348 348 349 349 349 348 349 348 346 344 342 343 348 350 350 349 348
353 354 355 355 355 353 353 355 356 356 355 354 354 353 353 352 351 350 351 350 349 349 349 349 348 348 348 348 348 349 349 351 352 351 351 351 352 352 352 351 350 351 352 350 346 344 342 343 345 348 347 346 347 347 345 345 344 344 346 348 349 349 350 351 351 350 350 349 349 349 349 349 349 349 349 348 347 346 343 343 347 350 350 350 349
352 352 352 354 356 355 354 354 356 356 355 353 353 353 352 351 351 351 351 351 351 352 351 350 350 349 349 349 349 349 349 350 351 351 351 351 351 351 352 351 350 350 351 352 351 348 345 342 341 344 346 346 346 346 344 344 344 344 344 346 347 348 350 350 350 350 349 349 349 349 349 349 349 348 349 349 347 347 345 344 347 349 349 349 349
351 352 353 354 356 356 355 355 356 355 354 353 352 353 352 351 351 352 352 351 351 353 351 350 351 351 350 350 350 349 350 351 351 351 351 352 352 352 352 351 350 350 351 352 352 352 350 346 343 341 341 342 342 342 343 343 343 343 344 344 345 349 351 350 350 350 350 350 350 350 350 349 347 346 347 349 347 346 345 344 346 348 348 348 347
354 355 355 355 355 356 356 355 355 355 355 352 350 351 352 351 351 351 352 351 351 353 352 351 352 352 351 352 352 351 350 350 351 351 350 352 352 352 352 351 351 351 351 353 353 353 353 351 349 346 343 342 340 339 341 343 342 342 342 343 344 346 348 349 349 350 350 351 350 349 349 347 344 342 343 345 345 345 344 343 345 346 346 346 346
356 357 356 356 356 356 355 355 354 355 355 351 349 349 350 351 351 351 352 352 352 352 352 352 352 352 351 353 356 357 355 351 349 350 350 351 352 352 352 351 351 352 352 352 352 352 353 353 352 351 350 347 346 344 343 342 341 340 340 340 340 341 343 343 345 346 348 349 349 348 347 346 344 342 341 341 341 342 343 343 344 344 345 344 344
357 357 356 355 356 355 354 355 354 355 355 353 352 352 351 351 350 351 352 353 353 352 352 352 352 352 352 353 353 355 361 356 349 349 349 350 351 351 351 351 351 352 353 352 352 352 353 353 353 352 352 351 351 350 349 347 346 344 342 341 340 339 339 339 340 342 343 345 347 347 346 346 346 344 343 342 341 342 344 345 344 345 345 345 344
356 356 355 355 355 355 354 355 355 355 355 355 354 354 352 351 350 351 352 353 354 352 352 352 352 352 352 354 354 356 362 357 352 353 350 349 350 350 350 351 351 351 351 352 352 353 353 353 353 352 353 352 352 352 351 351 350 349 348 347 346 344 343 341 340 339 339 341 344 345 345 346 346 346 346 345 345 345 345 345 346 346 346 346 345
355 356 356 355 354 355 355 355 355 354 355 355 354 354 352 351 351 353 353 354 353 351 352 352 352 352 351 352 354 356 358 354 354 359 354 351 351 351 351 351 352 352 351 351 352 353 354 354 354 353 353 353 352 352 352 352 351 351 351 351 350 349 349 347 345 343 341 339 340 342 343 345 346 346 346 346 346 346 346 345 346 346 347 347 347
355 354 354 353 353 354 355 354 354 354 355 355 354 353 352 352 352 353 354 354 354 352 352 352 351 352 352 351 351 352 353 353 355 357 357 357 353 351 352 352 353 353 352 352 352 352 353 354 354 354 353 354 353 353 353 353 353 353 353 352 352 352 351 351 350 349 347 344 343 343 344 345 346 346 346 346 346 346 346 345 346 346 347 347 347
352 350 348 348 350 351 351 351 352 353 355 355 354 353 352 352 352 352 352 353 354 353 352 352 352 352 352 352 351 351 352 352 353 353 355 358 356 353 353 352 354 354 354 354 353 353 353 353 353 354 354 354 354 354 354 355 355 354 354 354 353 353 352 352 352 351 351 351 350 350 349 350 349 349 348 348 347 347 347 346 346 347 347 347 347
347 348 348 347 346 346 348 349 349 350 353 354 353 351 350 352 353 352 352 353 354 353 351 351 351 352 352 350 350 351 351 351 351 351 352 353 355 355 353 353 355 354 354 355 354 354 353 353 353 353 353 353 353 354 354 354 355 355 355 355 354 354 353 353 353 353 353 353 354 354 354 354 353 353 352 351 350 349 348 348 347 348 348 348 348
341 347 350 350 346 346 349 348 346 348 350 349 348 345 345 349 352 352 353 354 353 353 352 351 351 352 350 348 349 351 351 350 350 351 350 349 351 354 352 354 357 355 353 354 354 354 353 353 353 353 353 353 354 354 353 353 353 353 354 355 355 354 354 354 354 354 355 355 355 354 354 355 355 354 354 354 353 352 351 350 350 349 349 349 349
340 345 349 350 348 348 350 348 347 348 346 344 344 341 340 344 348 349 351 352 352 353 353 352 352 353 351 347 348 350 349 348 349 350 350 350 351 353 352 351 353 353 352 353 353 353 354 353 353 353 352 353 353 353 353 353 353 353 353 353 354 354 355 355 355 355 355 355 355 354 354 355 355 355 354 354 354 354 354 353 352 351 351 350 350
341 343 343 344 345 347 349 349 347 346 344 342 342 341 341 343 345 345 345 346 347 350 352 353 353 354 353 351 351 352 350 349 350 350 351 351 352 353 352 351 352 352 351 352 353 353 354 353 353 353 352 352 352 352 353 353 353 353 353 353 353 354 354 355 355 355 354 354 354 354 355 355 355 355 355 355 355 355 355 355 354 353 352 352 352
342 342 340 340 342 345 347 347 344 343 343 343 342 342 343 344 343 343 342 341 342 344 346 349 351 351 351 351 352 352 352 352 351 351 351 350 351 351 350 350 351 351 350 351 352 353 353 353 353 353 352 352 352 352 352 352 352 352 353 353 353 353 354 354 354 353 354 354 353 354 355 355 355 355 355 355 355 355 356 356 355 355 354 354 354
340 341 340 340 341 342 343 342 341 341 340 340 340 340 341 342 342 341 340 340 341 341 341 342 344 345 346 347 349 350 351 351 351 351 350 349 350 349 350 350 350 350 351 351 352 353 353 352 352 353 353 352 352 352 352 351 352 351 352 352 353 353 353 353 353 353 354 354 354 354 354 354 355 354 355 355 355 356 356 356 356 355 355 355 355
339 339 338 340 340 340 340 340 339 338 337 336 336 338 339 340 341 340 340 340 341 341 340 340 341 341 342 343 344 345 346 346 348 349 350 350 350 349 350 352 353 353 352 352 350 351 352 352 352 352 351 352 352 352 352 352 351 351 352 352 353 353 353 353 353 353 354 354 354 354 353 354 354 354 355 355 356 357 357 357 356 356 356 356 355
338 338 338 339 339 338 338 339 338 336 335 336 338 339 340 340 340 340 340 340 340 340 340 340 341 341 342 342 342 342 343 343 344 345 347 348 350 350 350 351 353 354 354 354 352 351 350 350 351 351 350 351 352 352 352 353 352 352 353 354 354 354 354 353 353 352 353 353 353 353 353 354 354 355 355 356 357 358 358 357 357 356 356 356 355
338 338 338 336 336 336 336 337 337 336 336 338 339 339 339 338 338 338 339 339 339 339 339 339 339 340 340 340 341 341 342 342 342 343 343 344 346 348 349 349 350 352 354 356 355 352 350 349 350 350 349 350 352 353 353 353 353 353 354 355 355 355 354 354 353 352 353 353 353 353 353 354 354 355 356 357 358 358 358 358 358 357 357 356 356
338 337 335 335 335 337 337 338 338 338 337 337 336 337 337 337 338 338 339 339 339 339 339 339 339 340 340 340 340 341 341 341 341 341 341 342 342 345 348 350 350 350 351 355 355 351 349 349 349 349 348 347 350 352 353 353 353 354 354 355 356 356 356 355 355 354 354 354 353 353 354 354 355 356 357 358 359 359 358 358 357 357 357 357 357
336 335 335 335 336 337 338 339 339 338 336 336 336 337 337 338 338 337 338 338 338 339 339 339 340 340 340 340 341 341 341 341 341 340 341 341 341 341 343 347 350 350 350 351 353 351 348 349 348 347 347 347 349 351 352 352 352 353 353 354 354 355 356 356 356 356 355 355 355 354 354 355 356 357 357 358 358 359 359 358 358 358 358 358 358
335 334 334 335 337 337 337 338 337 336 336 337 339 339 338 337 336 336 336 337 338 338 339 339 339 340 340 340 340 341 341 341 341 341 341 341 341 341 340 341 344 348 349 350 351 351 349 348 348 348 348 348 349 349 349 349 350 352 353 353 353 353 355 357 357 357 357 357 356 355 355 355 356 357 357 358 358 357 357 358 358 359 359 358 359
335 334 335 337 338 338 337 337 336 335 336 338 338 338 337 336 336 335 335 336 336 336 336 337 338 339 339 339 340 340 340 340 340 340 341 341 341 341 341 340 340 342 346 349 351 350 349 349 350 349 349 349 350 350 349 349 350 351 352 352 352 353 354 355 356 357 357 357 357 356 356 356 356 357 357 357 357 357 356 357 357 358 358 358 359
336 336 337 339 339 338 338 338 336 336 337 337 337 337 336 336 336 335 335 335 334 334 334 335 336 337 338 339 339 338 337 336 335 336 338 340 341 341 342 342 342 342 343 346 349 350 349 349 350 350 349 349 350 350 350 350 350 351 351 351 351 352 352 353 355 355 356 357 358 357 357 357 357 356 356 356 356 356 356 356 356 356 357 357 358
338 339 339 340 339 339 339 338 338 338 338 338 338 337 337 337 336 336 336 335 335 334 334 335 336 338 340 339 338 336 333 331 331 329 331 336 339 341 341 342 343 343 343 344 346 348 348 348 348 348 348 348 349 350 350 350 351 351 351 351 351 351 352 353 353 354 354 355 356 356 356 356 356 355 355 355 354 354 356 356 356 355 355 356 356
339 339 340 340 339 339 339 338 339 338 338 338 338 339 338 338 337 337 336 336 336 336 335 335 336 339 340 338 337 335 332 331 330 328 329 333 336 338 340 341 342 343 344 343 344 346 346 346 346 345 346 346 347 347 348 349 351 351 351 351 352 352 353 354 354 353 353 353 354 354 354 354 355 355 355 355 354 354 356 356 356 355 355 355 356
339 339 339 339 338 339 339 339 339 339 339 339 339 339 338 338 338 337 337 337 337 337 336 336 336 338 339 338 336 334 332 331 330 329 330 334 336 337 338 340 342 342 342 343 343 343 344 345 345 344 344 345 344 344 345 347 349 349 349 349 350 351 352 352 353 354 354 354 353 353 353 353 353 353 353 354 354 355 356 355 355 355 355 356 355
340 339 339 339 339 339 339 339 339 339 339 339 338 338 338 338 338 338 338 337 336 337 337 337 337 338 338 337 335 333 332 331 329 328 330 334 337 338 339 340 340 340 340 341 341 341 342 343 344 344 345 345 344 342 341 342 343 344 345 346 346 347 348 349 350 352 352 353 352 352 352 352 352 353 353 354 354 355 355 355 355 356 356 356 355
340 341 341 340 340 340 340 340 339 339 339 339 339 339 338 338 338 338 338 337 336 336 337 337 337 338 337 335 333 332 331 331 330 329 331 334 336 337 337 338 339 339 340 340 340 341 342 343 343 344 344 344 344 342 339 338 339 341 343 345 345 345 346 347 348 348 350 351 351 352 352 353 354 355 355 355 355 356 356 356 356 355 355 355 354
341 341 341 341 340 340 340 340 339 339 339 339 339 338 338 338 339 339 338 337 336 336 336 337 337 337 336 334 332 331 331 330 330 331 332 333 335 334 333 335 337 339 340 341 341 342 342 343 343 343 343 342 343 342 341 340 341 340 341 344 347 347 347 348 347 347 349 350 350 351 351 352 353 354 355 355 355 355 355 355 355 355 355 355 355
341 341 341 341 341 340 340 340 339 339 339 338 338 338 338 338 337 336 335 335 336 335 334 335 335 335 334 332 332 331 331 331 331 332 332 332 333 334 334 335 336 337 338 340 341 341 342 342 342 342 342 342 342 342 341 342 342 341 341 344 347 347 346 346 346 346 348 348 347 348 348 349 350 351 351 351 352 352 353 354 355 355 355 355 355
341 341 341 341 340 339 339 339 338 338 337 335 335 336 336 335 333 332 332 332 333 334 333 333 333 333 332 331 332 331 331 332 332 332 332 332 333 334 335 336 336 335 336 338 340 340 341 342 342 341 341 341 342 342 341 341 342 342 343 344 345 346 345 346 346 345 345 345 344 344 343 345 348 349 349 349 348 349 350 352 353 354 354 353 354
341 342 341 340 339 338 338 337 335 335 334 334 334 333 332 331 330 330 330 330 330 331 332 332 332 331 331 331 332 332 331 332 332 331 332 332 333 334 335 336 336 336 336 337 338 339 340 341 341 341 341 341 341 341 341 342 341 341 342 342 343 345 345 345 345 344 344 344 344 345 344 344 346 347 346 345 345 345 347 349 351 352 352 353 354
341 341 339 338 337 336 335 335 333 332 332 333 333 331 329 329 329 329 329 329 330 330 330 330 330 330 330 331 332 332 332 332 332 332 332 333 333 334 335 335 335 336 336 336 337 338 339 340 340 340 340 340 339 340 340 341 341 341 342 342 343 344 344 344 344 344 344 344 345 347 346 345 345 346 345 342 341 342 344 346 348 349 350 351 352
340 339 337 336 334 333 332 332 331 330 330 330 330 329 329 329 330 330 330 330 330 330 330 330 330 330 331 331 332 332 332 332 332 332 333 333 334 334 333 333 333 333 334 335 336 336 337 338 339 339 339 339 339 339 339 339 340 341 342 342 341 342 343 343 343 344 344 345 345 346 346 345 345 346 345 341 339 340 340 342 343 344 346 347 347
338 336 334 332 331 331 330 329 329 329 328 329 329 329 330 331 331 331 331 331 331 331 331 330 331 331 332 332 332 332 331 331 331 331 333 333 333 333 332 332 333 333 334 334 334 335 335 336 337 338 337 337 338 339 338 338 340 341 341 340 340 340 341 342 342 343 343 343 344 346 347 345 345 346 346 343 341 341 340 340 340 341 342 343 344
335 333 331 330 330 329 328 328 328 329 329 329 330 331 331 331 331 331 331 331 331 331 331 331 331 331 331 331 331 331 331 331 331 331 333 333 333 333 333 333 333 333 334 334 334 334 334 334 335 335 336 336 337 337 337 338 339 340 340 340 340 341 341 342 342 342 342 341 341 345 347 345 344 346 346 344 343 342 340 339 341 340 340 341 341
332 330 329 328 328 328 328 329 330 330 329 329 330 332 332 331 331 330 331 331 331 331 330 330 330 330 331 331 331 331 331 331 331 331 332 333 333 333 333 333 333 333 333 333 333 332 332 334 335 334 334 334 335 335 335 336 337 337 338 339 340 341 341 341 340 341 341 340 339 343 345 344 343 344 345 344 342 341 339 338 340 339 340 342 342
331 329 328 327 328 329 330 330 330 330 330 330 331 332 332 331 330 331 331 330 330 330 330 330 330 330 330 330 330 330 330 330 330 330 331 332 332 332 331 331 331 331 331 331 331 330 330 331 332 332 331 331 332 332 333 334 334 334 334 335 337 338 339 341 341 340 340 340 339 341 344 344 342 343 344 342 342 342 341 339 339 339 341 342 342
330 329 328 328 329 330 330 330 330 331 331 331 330 330 330 329 328 329 329 329 329 329 329 329 329 329 329 329 329 329 329 328 329 329 330 330 330 329 329 329 328 329 329 329 329 328 328 327 328 328 328 328 328 328 329 330 331 331 331 332 333 334 337 339 339 339 339 340 339 340 342 343 342 341 343 343 343 343 342 339 338 338 339 339 339
329 328 329 329 329 330 330 330 331 331 329 328 326 326 326 324 324 326 327 327 326 326 327 327 327 327 326 326 326 327 327 328 327 328 328 328 329 329 329 328 327 327 328 328 327 326 325 325 324 324 324 324 324 325 325 326 327 327 327 329 330 333 335 336 336 337 338 337 337 338 341 342 341 341 342 344 345 344 342 340 338 338 338 339 339
Wind_Speed
11 9 13 19 20 21 19 17 16 14 13 12 11 10 9 9 10 11 10 11 10 8 9 9 11 12 12 13 13 12 11 10 11 14 13 13 14 14 16 17 19 21 22 22 22 22 22 21 21 21 22 21 18 19 20 20 19 19 19 18 18 17 17 16 15 15 14 13 13 12 12 12 12 11 11 10 10 10 10 9 9 10 10 10 10
5 3 5 10 16 22 21 17 16 14 14 13 12 11 10 10 9 11 11 12 12 10 9 9 11 12 12 13 13 12 12 11 12 14 14 13 14 15 16 17 18 20 21 22 22 23 23 22 21 21 23 22 19 20 21 21 21 20 20 20 20 19 18 17 17 17 16 16 15 14 14 14 14 14 13 13 12 12 11 11 11 11 11 11 12
3 2 1 2 9 19 21 18 16 14 13 13 12 12 12 11 9 10 11 12 12 12 11 11 12 13 13 14 13 13 13 12 13 14 15 14 13 15 17 17 18 20 22 23 23 24 24 23 22 22 23 24 22 20 21 22 22 21 21 21 21 20 19 19 19 19 19 18 17 17 17 16 17 16 16 16 15 14 13 13 13 13 13 13 13
3 2 2 3 4 13 18 17 14 13 13 12 13 13 13 12 10 9 11 11 12 13 13 12 13 13 14 14 13 14 14 14 14 14 15 16 15 15 16 17 17 19 21 23 24 25 25 24 24 24 24 25 25 22 22 23 23 23 22 22 22 21 21 20 20 20 20 20 19 19 18 19 19 18 18 18 17 16 16 15 15 15 16 16 16
4 1 3 5 6 9 12 13 12 11 12 12 12 14 14 13 11 10 11 13 13 13 13 14 13 13 14 14 14 15 15 15 14 14 15 17 16 15 15 16 17 18 20 22 24 25 25 25 25 25 26 27 27 25 23 23 24 24 24 24 24 23 22 21 21 22 22 21 21 21 21 21 20 20 20 20 19 18 18 18 18 19 20 21 19
8 5 2 4 7 9 10 10 11 11 12 12 12 13 14 15 13 12 13 15 15 14 14 15 14 14 15 14 14 15 15 16 15 14 16 17 17 17 15 15 18 20 20 21 23 24 25 25 25 26 27 28 28 27 24 23 24 25 25 25 25 24 23 23 23 23 23 23 23 23 23 23 21 21 21 22 22 21 21 21 22 23 23 22 22
8 6 3 2 5 8 8 8 9 10 11 11 11 13 14 15 15 15 15 16 17 16 15 14 14 13 14 14 15 15 15 16 16 15 16 17 17 18 18 17 18 21 23 22 23 24 25 25 26 26 27 29 29 29 27 24 24 26 26 26 26 25 24 24 24 24 25 25 25 24 24 24 23 22 23 24 26 25 24 24 24 23 21 20 20
7 6 5 4 3 4 5 5 6 7 9 10 11 12 14 15 16 16 16 17 17 17 16 15 13 13 13 14 15 16 15 14 15 16 17 18 18 19 20 19 18 21 24 24 25 25 25 25 26 27 27 28 29 29 29 28 26 25 27 26 26 26 26 26 25 25 26 26 26 25 25 25 25 24 25 26 27 27 26 25 24 23 20 19 19
8 7 6 5 4 4 4 4 4 4 6 9 10 10 12 16 17 16 17 18 17 17 17 16 14 13 13 14 15 16 16 15 15 17 17 18 19 20 21 21 20 21 23 25 25 26 26 26 26 27 28 28 29 30 30 29 28 27 27 28 27 27 27 27 27 27 28 28 28 27 26 26 27 26 26 27 27 27 27 26 25 24 22 20 19
9 8 7 6 6 6 5 5 5 5 6 9 10 9 11 14 15 16 17 19 17 16 16 16 15 15 14 14 14 15 16 15 15 17 17 18 19 21 22 22 22 22 23 24 25 26 27 27 27 27 28 29 29 30 31 31 30 30 29 29 29 28 28 28 27 28 28 29 29 29 28 28 28 27 28 28 27 27 27 26 26 25 24 22 21
9 9 9 8 8 8 7 7 6 5 7 10 11 11 11 11 13 14 16 17 17 17 16 16 16 16 13 13 13 14 15 15 16 17 17 17 19 22 24 24 24 23 24 24 24 26 27 28 28 28 29 30 30 30 32 32 32 32 31 30 30 30 30 30 29 29 29 29 29 29 28 29 30 29 29 30 28 27 27 27 26 26 25 24 23
9 10 10 10 9 8 7 7 7 6 8 12 13 12 11 12 11 10 10 13 16 16 16 16 15 14 12 11 11 12 13 15 16 17 17 17 19 22 24 24 25 25 25 25 25 26 27 29 30 30 30 30 31 32 33 33 33 34 33 32 31 30 31 31 31 30 30 30 30 29 29 31 31 30 30 30 29 28 28 27 27 27 26 25 25
9 9 10 11 10 8 8 8 8 7 7 10 13 12 12 11 8 6 7 10 12 12 13 14 12 10 8 9 10 10 12 14 16 18 18 17 18 21 22 23 25 26 26 26 26 26 27 28 29 31 32 32 32 33 33 34 34 35 35 35 34 31 31 31 31 30 30 30 29 29 30 32 33 32 32 31 30 30 30 30 30 29 29 28 28
8 8 9 10 8 8 8 8 7 7 5 4 7 9 9 9 8 7 8 9 10 9 10 12 10 8 5 3 6 8 11 14 16 19 20 20 20 21 21 21 24 26 27 27 28 28 28 28 28 29 31 33 33 33 34 34 36 36 36 36 36 34 33 33 32 31 31 31 31 32 32 33 34 34 34 34 33 33 32 32 32 32 31 31 30
8 8 8 8 7 7 7 6 5 6 5 2 4 6 8 10 10 9 9 10 11 9 10 13 10 7 3 1 2 3 5 10 16 20 21 22 22 22 22 21 23 24 25 27 29 30 30 29 29 29 30 31 32 33 34 35 36 38 38 38 38 38 37 37 36 34 33 32 32 34 34 34 35 34 34 35 35 35 34 33 33 33 32 32 31
9 9 8 6 5 6 6 6 6 7 8 6 7 7 7 9 10 9 10 10 11 9 9 14 14 8 3 0 0 1 2 5 10 16 20 22 23 23 23 23 23 24 24 26 28 30 31 31 31 31 31 31 31 32 32 32 33 35 36 37 38 38 39 39 39 38 37 35 34 35 36 36 36 36 35 35 35 34 34 34 33 33 33 32 32
10 9 8 6 5 5 5 6 7 7 8 7 7 7 5 7 9 9 10 11 11 9 8 12 16 14 7 2 2 0 2 2 3 7 12 18 21 23 24 24 24 24 25 25 26 28 29 31 32 32 32 32 32 33 33 32 32 33 34 34 35 36 36 38 39 40 40 39 38 37 37 38 37 37 37 36 36 35 35 35 34 34 33 33 33
8 7 6 5 4 3 4 5 6 7 7 6 5 5 6 6 6 7 11 11 10 9 8 10 14 17 15 10 4 1 1 0 0 3 4 10 15 19 22 24 24 24 25 26 27 27 28 28 30 31 32 33 33 34 34 34 34 34 35 34 34 34 34 34 36 37 39 40 40 40 39 38 38 38 38 37 37 37 37 36 35 35 34 34 34
4 4 4 4 3 3 4 4 4 5 5 5 4 4 5 4 3 5 10 12 10 8 9 10 12 15 18 18 14 9 6 3 2 2 3 4 8 12 17 20 22 24 25 27 28 28 29 29 29 31 32 33 34 34 35 35 35 35 35 35 34 34 33 33 33 34 36 37 39 40 40 39 39 38 38 38 38 38 38 38 37 36 36 35 35
3 2 2 2 3 3 3 1 1 3 5 6 6 5 3 3 3 3 5 8 9 9 8 8 10 11 14 18 19 16 14 11 8 5 2 2 4 6 11 15 19 22 24 26 28 29 30 31 31 32 32 33 34 35 35 35 34 34 35 35 35 35 34 33 33 33 33 33 34 35 36 37 38 38 39 38 38 38 38 38 38 37 37 36 35
2 2 3 3 2 2 2 2 2 3 3 4 4 5 4 3 5 4 3 4 5 8 8 8 10 11 11 13 15 15 14 13 12 9 6 4 3 3 5 9 12 18 22 24 27 28 29 30 31 32 33 33 34 35 37 37 36 35 35 35 35 35 35 35 34 33 33 32 32 32 33 34 34 36 37 38 38 38 38 38 38 38 38 37 35
3 4 5 5 3 3 3 2 1 3 3 3 4 5 5 3 3 4 5 4 4 6 8 9 9 10 10 10 12 10 9 9 10 10 8 6 6 5 6 6 7 12 18 20 22 24 26 28 30 32 33 34 34 34 35 37 37 37 36 35 35 35 35 35 34 34 34 33 33 33 32 32 32 32 34 35 36 37 37 38 38 38 38 37 36
4 4 7 7 6 6 5 4 3 4 3 3 4 5 5 2 2 3 3 5 6 7 8 9 9 10 10 11 12 10 9 9 10 11 9 7 6 4 7 9 9 13 17 18 19 21 23 25 27 29 31 32 33 34 34 35 36 37 37 37 36 35 34 34 34 34 34 34 34 34 33 32 31 31 32 33 35 35 36 36 37 37 37 37 36
4 4 5 5 5 7 8 6 5 4 1 2 3 4 4 2 2 3 4 5 6 7 8 9 9 10 11 11 11 11 13 14 14 14 12 11 8 4 7 10 8 12 17 17 17 19 20 22 24 26 27 28 30 32 33 34 34 35 36 37 37 36 35 35 35 35 35 35 35 34 34 33 32 31 31 32 34 34 35 35 35 36 36 36 35
2 3 5 6 6 6 6 5 5 4 2 2 2 3 3 1 2 4 5 6 6 5 6 8 9 10 12 12 12 12 13 14 15 15 15 14 11 7 9 10 7 10 15 15 15 17 18 21 23 23 25 26 27 28 30 32 33 34 34 36 36 36 36 36 35 35 35 35 35 35 35 34 32 32 31 32 33 34 34 34 35 35 35 35 35
3 3 5 8 9 9 9 7 6 4 3 3 2 2 2 2 3 4 5 6 7 7 7 7 8 9 10 11 12 13 14 15 16 17 17 15 14 12 9 8 8 10 11 12 13 13 15 19 20 20 22 24 24 26 27 29 31 31 32 34 34 34 34 35 34 34 34 33 33 34 35 35 34 32 32 31 32 32 33 34 34 34 34 34 34
4 6 7 9 9 8 7 4 3 2 2 2 2 2 2 2 3 3 4 5 6 7 8 8 7 8 8 9 10 11 12 13 14 16 18 18 18 18 12 5 5 6 5 7 11 13 17 20 20 20 21 22 23 24 24 26 27 28 29 31 32 33 32 33 33 32 32 32 32 33 33 34 34 33 32 31 31 31 32 32 33 34 34 34 33
9 8 7 6 5 3 2 2 2 2 2 2 2 3 3 4 4 4 5 5 6 6 7 7 7 8 8 8 9 10 10 10 11 12 13 15 17 18 16 9 5 3 3 4 6 9 15 17 16 16 16 17 19 21 23 25 26 25 27 29 30 30 30 31 31 30 30 30 31 31 31 31 31 32 31 31 31 30 30 30 31 32 33 33 33
9 6 4 2 2 1 1 3 2 2 3 3 4 4 5 5 5 5 4 5 6 7 7 7 8 9 9 9 9 10 10 10 11 11 12 12 13 15 17 17 12 5 2 3 4 5 9 12 11 11 14 14 13 15 19 22 23 23 25 26 27 28 28 28 28 28 28 28 28 29 29 28 29 30 30 29 29 29 29 29 30 31 32 32 33
6 3 3 2 3 4 4 2 0 2 3 4 5 4 4 4 4 5 5 6 7 8 8 7 8 8 9 9 9 10 10 10 11 12 12 12 12 13 16 19 19 13 7 4 5 8 11 15 16 15 14 15 12 11 14 16 17 19 21 23 24 25 25 25 25 25 26 26 27 27 27 27 27 28 28 27 27 28 29 29 29 30 30 31 32
3 3 2 2 2 2 1 1 2 3 4 4 3 2 3 4 6 7 7 7 8 9 9 8 8 9 9 9 10 10 11 11 11 12 12 13 14 15 15 17 20 21 18 9 4 10 16 17 21 20 16 15 14 13 14 15 16 17 18 20 22 23 23 24 24 24 24 24 25 26 27 27 26 26 26 25 25 26 27 28 28 29 29 30 30
2 2 1 2 2 1 2 1 2 3 4 3 3 3 5 7 9 9 8 8 9 10 10 10 10 10 11 11 11 11 12 12 12 13 13 13 14 15 14 14 16 19 22 16 6 11 23 24 24 25 24 21 20 19 18 18 17 16 18 19 20 22 23 24 24 24 24 24 23 24 25 25 26 26 25 24 23 24 25 26 26 27 27 28 28
1 2 2 2 2 2 2 1 3 4 5 5 5 5 7 8 9 9 9 9 10 12 13 12 12 12 12 12 12 12 12 13 14 15 15 15 15 15 14 12 12 13 16 17 10 9 21 27 24 24 26 24 23 23 21 19 17 16 17 18 19 20 21 22 23 23 23 23 22 22 22 24 25 26 26 25 25 24 23 24 25 25 26 26 27
2 2 2 2 2 2 4 5 5 5 6 6 6 7 9 9 9 9 10 10 11 12 13 12 12 11 10 10 11 12 13 15 17 17 17 16 16 16 15 14 12 12 11 11 12 9 14 22 23 22 23 22 22 23 21 19 18 17 17 17 18 19 19 20 21 22 23 23 23 23 24 25 26 27 27 27 27 26 24 24 24 24 25 25 26
2 2 2 3 5 7 8 7 7 7 7 6 7 8 10 11 11 11 11 11 12 13 12 11 10 9 8 9 11 12 14 18 20 20 18 17 16 16 17 16 13 12 10 8 8 8 10 15 18 17 17 17 17 18 19 19 19 17 17 17 17 19 19 20 21 22 22 23 23 24 25 26 27 27 27 27 27 26 25 24 24 24 24 25 25
3 4 5 7 8 10 10 9 8 8 9 10 9 9 11 12 13 13 13 14 14 15 15 12 10 10 10 11 12 14 16 19 21 21 19 18 18 17 18 18 15 13 10 8 8 7 8 10 12 12 12 12 13 13 14 15 16 16 16 16 17 19 20 21 22 22 22 21 22 23 24 24 25 25 25 25 25 26 26 26 25 25 25 24 24
7 8 9 10 11 11 11 10 10 10 11 11 12 13 13 14 13 14 14 15 15 16 17 15 12 11 12 13 14 14 16 18 20 20 19 18 19 19 19 18 17 15 14 13 11 9 9 10 11 11 11 11 12 12 11 12 13 14 14 15 17 19 21 21 21 22 23 22 22 23 24 24 25 25 26 25 25 26 27 27 27 27 26 25 25
10 10 11 11 11 11 11 11 12 12 13 13 14 14 15 15 15 14 15 14 14 15 16 15 15 14 14 14 14 14 15 17 19 19 18 18 19 20 20 20 20 19 18 16 14 11 10 10 11 11 11 10 11 13 12 12 13 14 15 16 16 17 19 20 20 20 21 22 22 22 21 22 22 23 24 25 26 26 26 27 27 27 27 27 26
10 11 12 12 12 12 13 13 14 14 14 14 14 14 15 16 15 15 16 16 15 14 14 15 15 15 14 14 14 14 15 16 17 17 17 19 19 20 20 21 21 21 20 19 17 13 11 11 11 11 12 11 11 13 14 14 14 15 15 16 17 17 17 17 18 18 18 19 20 20 19 19 20 21 22 23 25 26 26 27 27 27 26 26 26
11 12 12 13 13 13 14 14 15 15 15 15 15 16 17 16 16 17 18 18 17 16 14 14 14 14 14 14 14 14 14 15 16 16 17 18 20 20 21 20 20 20 20 19 18 15 13 12 12 12 13 13 13 13 14 14 13 14 14 15 16 17 16 16 17 17 17 19 20 20 19 19 19 20 21 23 25 25 26 27 26 26 24 23 23
11 11 12 13 12 13 13 14 14 15 15 15 15 16 16 15 14 15 16 16 16 16 14 13 14 14 14 15 15 14 15 16 16 17 18 18 19 20 20 19 19 19 19 19 18 16 15 13 13 13 12 12 13 13 13 13 13 13 14 14 14 16 17 17 17 17 17 18 19 20 21 20 20 20 20 22 22 22 23 25 25 24 23 23 23
10 10 10 11 11 13 14 14 14 14 14 14 14 13 12 11 10 11 12 12 13 13 14 14 14 14 14 15 15 15 16 17 17 18 19 18 18 18 18 18 18 17 18 18 17 17 16 14 13 13 11 11 14 15 14 14 14 13 15 15 15 16 16 15 16 17 17 16 17 19 19 18 18 19 19 19 19 19 20 22 23 24 24 23 22
10 10 11 12 13 13 14 14 14 13 14 13 11 10 11 11 12 13 12 12 11 11 12 13 14 14 15 15 16 16 18 19 20 20 19 19 19 18 18 17 16 15 15 16 17 16 15 14 14 13 11 12 15 17 17 16 16 15 15 15 14 14 13 10 10 14 16 15 14 17 18 17 17 18 18 18 18 18 18 19 20 21 22 22 21
10 11 12 12 12 12 12 13 12 12 12 11 10 12 13 14 14 14 14 13 12 12 12 13 14 15 16 17 18 18 19 20 20 20 20 19 18 18 17 18 17 16 14 14 15 15 15 15 15 15 14 14 16 18 18 18 17 16 14 14 14 14 14 12 11 13 16 15 13 15 19 21 19 19 21 21 20 19 19 19 19 20 21 22 21
10 10 10 10 11 11 10 10 11 11 12 12 13 14 15 14 14 13 13 13 12 12 13 13 14 16 17 18 19 20 21 21 21 19 18 18 17 18 19 20 20 18 15 13 13 14 14 15 16 16 16 16 17 18 18 18 19 18 16 16 16 16 16 16 16 18 19 16 14 15 20 24 22 21 23 24 21 21 21 20 20 20 21 21 20
7 8 9 10 10 9 10 11 12 13 13 13 13 13 13 14 14 14 13 13 13 13 12 13 14 15 17 19 20 21 22 22 21 19 18 18 18 19 20 19 18 17 15 14 13 14 14 14 16 17 17 17 18 18 18 19 20 21 19 19 20 18 18 18 19 21 22 20 18 15 16 23 24 20 23 25 23 23 23 22 22 21 21 21 21
7 8 9 10 10 10 11 12 13 13 13 13 12 13 13 14 15 14 14 13 13 13 13 14 15 16 17 18 19 20 21 21 20 18 18 19 19 19 17 16 16 15 14 14 14 13 13 13 15 16 16 16 16 16 17 17 19 21 22 22 22 20 19 18 19 21 22 22 20 15 14 22 24 20 22 26 25 24 24 23 23 23 21 21 21
8 9 10 10 10 11 11 12 12 13 13 12 12 13 13 13 13 14 14 13 14 15 15 16 16 16 16 16 17 17 18 19 19 18 18 18 16 15 14 13 14 14 14 15 14 12 11 12 14 14 14 14 14 14 14 15 15 16 18 20 20 18 17 17 17 19 21 22 22 18 16 21 24 22 23 27 26 25 26 25 24 23 21 20 19
9 10 11 10 10 11 12 12 12 13 14 13 12 11 10 11 12 12 11 12 13 14 15 15 15 15 15 15 15 16 17 18 17 17 17 16 13 12 12 12 14 16 17 17 16 14 14 15 16 16 16 17 18 18 18 18 17 17 17 16 17 16 15 13 11 14 19 22 22 19 17 19 22 22 24 26 26 25 25 24 23 22 20 18 18
11 12 12 11 11 11 12 12 13 13 13 11 10 9 9 10 12 11 10 12 13 14 14 14 15 15 15 16 16 16 17 17 16 16 16 16 14 13 14 14 16 18 21 21 19 20 20 20 21 22 23 23 24 24 24 23 22 22 20 19 19 18 16 12 11 13 17 21 23 21 17 17 21 23 22 21 21 23 24 23 22 21 19 17 17
12 14 14 12 12 11 11 12 12 11 11 11 11 11 11 12 13 11 10 11 13 14 15 16 17 17 17 18 19 18 18 17 17 17 17 17 17 17 17 17 17 21 24 23 22 23 24 25 26 27 27 28 28 28 28 28 27 26 26 25 23 22 19 17 16 13 10 13 19 20 17 17 20 22 19 12 9 12 17 18 17 18 18 17 16
Wind_Direction
253 266 258 247 239 234 234 234 231 230 224 219 222 221 220 226 230 235 235 238 245 242 239 234 225 222 224 231 230 222 219 217 208 202 206 210 207 209 210 207 207 209 209 210 211 208 207 209 210 206 202 204 204 205 206 207 210 213 214 215 216 218 219 220 222 225 226 228 230 235 241 246 249 251 253 256 259 263 266 267 270 273 273 273 276
239 263 264 257 247 236 234 237 234 232 227 224 225 224 229 235 236 241 241 242 247 241 233 234 230 223 224 231 236 231 223 218 210 204 207 210 207 206 207 206 208 211 212 212 211 209 208 210 212 210 206 207 209 209 210 211 212 214 217 218 219 221 222 222 223 225 228 228 231 234 239 244 247 250 252 254 256 259 266 274 277 276 274 272 274
213 232 206 243 246 236 233 235 234 231 227 227 227 226 231 240 246 248 245 243 247 242 229 227 230 228 229 232 236 235 229 225 219 213 213 215 211 203 202 208 213 214 214 213 211 209 209 211 212 213 210 210 212 213 213 214 215 215 217 220 221 222 224 225 226 228 230 230 231 233 237 242 245 249 251 255 257 258 262 268 272 273 274 273 272
197 173 128 128 201 224 227 229 229 224 222 226 228 228 231 238 247 251 249 245 244 241 231 224 225 227 230 233 236 237 233 230 227 225 223 220 215 205 202 211 215 213 213 212 210 208 209 212 213 214 214 213 215 217 217 217 218 218 219 222 223 223 224 226 228 231 233 233 234 235 237 241 244 247 251 253 255 257 259 262 266 270 273 272 270
229 185 126 119 143 187 206 213 217 216 216 223 228 227 229 236 243 250 253 247 243 243 237 230 226 225 227 230 236 239 238 235 232 234 233 227 222 215 209 213 213 209 211 210 208 209 211 213 215 215 216 216 216 218 220 220 220 220 221 224 225 225 225 227 229 232 235 236 237 238 240 243 244 246 249 251 251 252 254 257 261 265 269 269 266
239 243 199 128 138 161 182 199 210 214 218 230 234 225 225 233 240 249 255 251 249 250 244 239 238 234 228 227 233 238 239 237 232 234 239 235 229 228 221 217 213 208 209 210 211 213 215 217 218 219 220 219 219 220 221 222 223 222 222 225 227 227 227 228 230 233 235 237 238 240 243 245 244 245 247 250 251 250 251 256 261 264 268 267 262
231 240 243 196 159 164 180 194 202 209 219 232 235 232 234 236 238 244 251 249 248 253 253 250 251 246 233 226 228 230 233 233 229 232 242 242 234 231 230 226 219 212 210 211 213 217 220 222 223 222 223 223 223 224 224 224 225 224 224 226 227 229 229 230 232 233 235 237 239 241 244 246 245 244 246 249 252 252 253 259 263 265 268 268 261
228 242 256 247 205 186 196 203 206 213 218 223 232 243 248 246 240 242 248 248 244 249 254 253 254 253 242 232 229 227 228 230 230 233 241 244 238 232 231 233 228 221 217 215 216 218 221 225 226 225 225 226 227 228 229 228 227 225 225 227 228 229 231 232 233 234 236 237 240 242 244 246 247 247 248 250 251 252 254 258 261 263 264 267 263
241 246 254 255 240 221 219 232 238 234 228 232 239 244 247 246 242 240 247 248 245 247 249 251 253 252 248 240 233 230 231 233 234 234 236 240 241 237 234 236 236 231 226 224 222 221 222 225 228 229 228 229 230 232 233 233 231 228 227 228 228 230 231 233 233 234 237 238 240 242 243 245 247 248 249 251 253 253 255 256 258 261 263 264 263
253 251 252 260 258 243 232 239 245 242 244 245 248 254 254 246 240 242 249 246 243 246 248 252 256 252 248 242 235 233 236 240 239 236 234 236 240 241 239 239 239 238 234 231 230 228 227 227 229 231 232 232 233 235 237 237 234 231 229 230 231 231 232 235 236 236 238 239 240 242 242 244 246 248 250 252 256 256 254 253 256 260 262 264 264
256 258 258 260 264 258 242 239 240 237 247 251 253 265 269 252 244 252 254 246 244 249 249 253 258 254 246 239 239 242 241 242 240 236 236 238 239 239 238 239 240 240 240 238 237 235 233 231 230 231 233 234 235 237 239 239 238 235 234 234 234 234 234 234 236 237 238 239 241 243 244 245 247 248 249 252 256 256 253 252 255 258 260 263 263
262 266 268 263 263 267 258 247 240 236 254 266 269 271 266 252 251 263 260 250 249 250 246 248 255 253 247 246 250 250 242 240 241 241 241 242 240 237 235 236 238 240 242 243 243 242 239 237 234 233 234 235 236 237 239 241 241 240 239 239 238 238 238 237 238 238 239 241 242 243 245 247 250 251 251 253 256 255 254 252 253 256 258 260 261
272 272 271 265 263 268 269 261 251 247 259 274 279 279 274 265 268 284 271 253 249 246 237 238 244 243 245 255 255 249 239 237 244 249 250 247 242 238 235 235 236 237 240 243 244 245 243 241 239 238 238 239 239 239 239 241 242 242 242 243 242 241 241 242 242 243 243 244 244 244 245 247 251 253 253 254 256 256 256 254 253 255 257 259 260
272 269 265 261 264 268 273 269 261 263 263 260 266 265 268 279 287 281 265 252 251 249 230 221 225 225 225 268 272 260 248 241 244 249 251 249 244 240 238 237 236 235 237 241 244 246 245 243 242 242 242 243 244 244 242 241 242 244 244 245 245 244 244 244 244 245 245 245 246 246 247 248 251 253 253 254 255 257 257 256 255 256 258 259 259
270 275 274 265 264 266 268 270 276 285 285 268 252 237 237 263 276 260 247 247 250 251 231 217 213 211 199 327 301 280 267 253 247 245 244 244 243 241 239 238 237 236 237 240 241 243 244 245 244 245 245 245 246 247 246 245 245 246 247 247 248 248 248 248 247 248 248 248 249 249 250 252 254 254 254 254 255 256 257 257 257 257 258 259 260
271 282 288 277 269 269 269 284 303 297 290 287 276 263 245 256 268 253 237 237 239 244 237 221 212 200 173 102 83 69 307 263 251 249 243 239 240 240 239 240 239 239 240 240 240 241 243 244 245 246 247 247 248 248 249 250 250 249 250 251 251 251 251 251 251 251 252 251 251 252 254 255 256 256 256 256 256 256 257 258 258 259 259 260 261
269 278 291 285 276 284 290 299 304 293 291 287 271 270 263 256 264 254 235 228 229 235 240 226 217 213 203 172 86 93 254 258 269 266 249 238 239 240 239 241 241 241 242 241 240 241 242 243 244 245 246 248 249 249 250 252 253 252 252 253 254 254 254 254 254 254 254 254 254 254 255 256 256 256 256 256 257 257 258 258 259 260 260 260 261
269 274 287 281 274 293 299 295 292 292 297 286 261 265 267 255 252 246 238 234 228 226 235 231 222 223 227 229 239 235 231 241 293 301 276 246 242 241 241 242 243 244 243 243 243 242 243 243 243 243 244 246 247 249 250 252 253 254 254 255 255 256 257 257 257 257 257 257 256 256 256 257 257 257 257 257 257 257 258 258 259 260 260 260 261
267 274 273 264 275 285 280 281 287 299 298 284 280 288 280 264 245 247 246 240 232 227 229 231 227 231 237 240 245 251 258 263 239 270 315 271 248 243 245 245 245 247 246 245 244 244 244 244 244 245 244 245 246 247 249 250 252 253 254 256 257 258 259 259 259 258 258 258 258 258 258 258 258 258 258 258 258 258 258 258 258 259 260 260 261
263 285 272 260 270 260 253 286 340 322 304 300 311 318 307 273 245 244 245 238 238 238 231 232 237 240 244 246 248 255 263 264 257 249 256 293 281 258 253 252 249 250 251 250 249 248 248 247 247 248 248 247 247 247 247 249 250 252 253 255 257 259 260 260 260 259 259 259 258 259 259 259 259 259 259 259 259 259 259 258 258 259 259 260 261
278 271 268 264 232 198 165 111 53 15 339 333 355 15 12 318 270 254 239 240 246 244 238 234 239 241 245 250 250 253 259 262 257 246 238 258 278 274 261 258 253 252 252 253 254 253 252 252 251 251 252 253 252 250 248 248 249 250 252 254 256 257 258 259 260 260 260 260 260 260 260 261 261 261 261 260 260 260 260 259 259 259 259 260 261
290 243 244 252 226 192 175 162 106 80 83 53 34 23 17 352 301 286 268 275 269 252 245 241 248 249 243 245 246 245 250 256 248 235 228 232 240 256 260 252 253 260 260 257 257 258 257 256 255 254 255 255 255 254 252 250 249 249 249 252 254 255 256 257 258 260 260 260 261 262 262 262 263 264 264 263 262 261 261 260 260 260 259 260 261
282 244 234 245 243 226 212 217 207 143 111 13 359 3 9 25 9 347 308 294 285 274 265 256 259 257 249 248 251 247 239 239 240 231 221 219 230 253 259 255 257 264 270 271 269 268 266 262 260 259 259 258 257 256 255 254 252 250 250 251 253 253 253 254 255 257 259 261 262 262 263 263 263 265 265 265 263 263 262 262 261 261 260 260 260
288 251 221 218 224 224 227 237 218 166 117 356 360 7 7 10 6 357 340 327 310 290 279 270 265 260 259 261 261 256 246 244 249 245 238 237 238 250 261 260 261 264 272 277 277 274 271 268 266 266 265 263 260 258 256 256 255 253 252 252 253 253 252 253 254 256 258 260 262 262 263 263 264 265 266 265 265 264 263 263 263 262 261 261 260
326 192 173 158 159 180 195 192 164 143 123 89 47 9 360 342 323 316 309 314 318 308 294 283 276 272 274 275 271 267 263 263 264 257 252 246 238 247 262 256 250 266 274 275 275 276 273 271 270 269 269 266 264 261 258 257 257 256 254 254 254 253 253 254 254 256 258 259 260 261 262 264 264 265 265 266 267 266 265 264 264 263 263 262 261
22 143 134 131 134 139 145 146 141 131 100 75 38 5 352 327 319 310 300 302 307 311 313 309 299 294 292 287 281 277 276 279 274 264 257 244 230 232 247 253 247 256 269 271 270 272 272 272 271 270 270 270 268 265 262 259 259 259 258 257 257 256 256 256 256 256 257 258 259 260 262 264 266 266 266 267 267 267 267 266 265 265 264 264 263
85 131 131 132 132 130 133 133 125 99 48 9 329 317 316 323 318 305 301 309 315 315 318 320 317 315 311 306 303 296 292 292 289 279 267 253 243 240 237 241 262 257 263 273 267 264 267 271 274 273 272 271 270 267 265 263 262 262 261 259 259 260 259 259 259 258 257 258 259 260 262 264 265 266 267 267 268 268 268 267 266 265 265 265 265
120 128 124 129 126 120 127 86 56 356 330 319 324 329 323 318 312 306 302 309 323 329 331 329 323 322 318 317 319 314 313 312 309 304 289 273 263 256 244 229 239 270 285 280 267 267 271 271 272 277 276 274 273 271 267 265 264 264 263 261 261 262 262 262 260 259 258 258 258 259 261 262 264 266 267 268 269 269 268 267 266 266 265 265 265
125 111 84 66 51 70 72 62 49 329 326 327 318 311 308 306 304 310 313 311 316 322 327 327 322 318 313 314 318 315 317 317 311 313 312 300 284 269 256 242 231 226 258 275 257 265 277 270 263 273 280 279 281 280 272 268 268 267 264 263 263 265 266 266 263 261 260 259 258 258 260 261 262 264 266 267 268 269 268 267 266 265 265 265 265
119 77 39 32 71 100 92 77 121 294 313 308 303 297 297 306 310 316 318 315 316 316 319 323 324 322 317 316 319 317 318 319 314 311 313 313 303 284 269 255 242 227 221 246 259 263 274 277 273 276 284 285 285 287 282 278 276 273 269 268 269 270 272 272 269 266 263 260 259 258 258 259 259 260 263 266 268 269 268 267 265 265 265 264 264
94 44 17 35 73 136 177 275 251 286 311 306 307 306 308 324 322 316 310 306 310 315 321 326 329 331 331 333 335 335 335 331 325 321 318 318 314 302 286 269 253 242 237 234 253 269 269 277 281 282 286 288 285 284 285 284 282 278 275 274 275 276 276 274 273 270 267 264 261 258 256 257 258 260 263 266 268 268 267 266 266 266 265 264 263
62 17 320 345 348 226 211 269 266 293 312 305 294 287 298 313 315 313 307 301 305 313 318 320 323 327 330 335 338 341 345 342 337 335 330 326 324 319 310 291 273 261 252 241 233 268 269 273 279 282 285 287 285 285 285 282 278 275 275 276 278 277 274 272 272 271 270 268 265 260 256 256 258 260 262 265 268 268 266 265 266 267 267 265 264
310 294 266 315 341 174 179 290 289 303 306 293 283 281 288 301 310 313 311 308 310 312 313 310 310 316 321 327 333 336 340 341 339 337 334 330 326 325 327 321 309 298 275 255 241 258 272 275 278 283 288 290 289 289 289 283 276 274 276 276 277 276 273 272 272 272 272 270 268 264 260 258 259 261 262 265 268 270 268 266 266 267 267 267 265
296 280 257 274 280 286 304 294 278 288 297 292 292 291 288 294 305 308 308 312 316 316 315 312 310 313 317 321 329 335 337 335 332 330 329 330 328 324 326 330 328 331 324 286 263 255 270 279 284 289 294 295 294 293 291 284 280 281 281 279 279 278 276 274 272 272 273 272 270 267 264 262 262 264 265 266 268 269 268 266 266 267 268 269 268
322 318 316 312 307 311 316 306 287 289 300 305 306 297 289 294 301 302 303 308 313 314 311 313 316 314 312 315 322 327 331 331 328 324 320 320 324 322 319 321 322 323 332 326 295 272 266 279 289 295 300 303 300 296 290 285 285 286 284 284 283 281 279 276 273 273 273 272 270 268 267 267 267 268 268 269 269 268 265 264 265 267 269 270 270
311 318 317 313 311 310 311 309 302 303 309 310 310 307 302 301 300 299 302 303 305 306 302 302 308 302 295 301 309 315 322 327 327 323 317 313 315 317 315 315 316 312 308 310 309 297 281 284 296 304 309 310 306 301 295 291 290 289 289 289 286 281 279 276 275 275 275 274 272 271 271 270 269 269 269 270 270 269 266 265 265 268 269 269 270
307 311 312 311 312 312 312 311 307 306 309 307 308 309 308 308 305 301 303 302 302 303 298 294 291 282 279 288 298 308 318 325 325 320 316 314 314 313 311 308 306 306 301 295 296 297 287 283 291 299 303 304 304 304 304 303 301 298 295 293 288 282 279 277 275 276 276 275 274 274 273 272 270 269 269 270 270 270 269 269 270 270 270 269 271
316 318 321 322 324 323 320 317 313 310 309 307 307 308 309 310 307 303 304 305 307 305 296 287 278 270 272 284 296 309 318 321 320 316 312 314 316 314 310 305 302 300 296 293 292 289 283 280 282 287 291 292 296 298 299 304 306 305 302 297 293 287 281 278 278 277 277 276 275 276 277 276 275 272 271 270 270 270 269 270 271 271 271 271 271
326 327 329 329 329 327 322 318 316 314 313 311 309 308 309 307 302 298 300 303 306 305 294 281 271 266 272 285 298 308 313 313 311 310 309 312 315 314 311 309 307 302 295 291 289 285 280 278 277 279 282 283 286 289 293 299 300 297 296 291 288 289 286 284 284 284 283 281 280 280 279 279 279 277 275 274 272 271 270 269 270 270 270 270 270
326 325 326 326 324 322 319 317 317 316 314 312 309 308 307 304 299 297 298 299 299 298 290 277 267 266 274 287 296 301 304 304 303 303 304 306 308 308 307 310 312 308 301 295 292 287 281 277 275 278 281 281 282 283 286 290 288 287 289 283 279 285 291 291 290 288 286 284 285 283 280 277 275 274 275 275 274 273 272 271 272 271 269 268 268
323 322 321 321 320 321 320 319 319 319 317 317 318 317 313 309 306 305 305 305 303 297 288 277 273 273 279 287 291 293 297 297 296 295 297 298 299 300 301 305 308 308 305 300 295 292 288 283 280 281 279 277 279 280 278 278 277 282 289 284 276 282 289 288 286 284 282 283 285 285 283 280 276 275 276 276 277 278 276 273 271 271 270 269 267
320 319 319 319 321 322 323 323 323 323 324 327 329 326 322 321 323 322 318 317 313 304 294 288 284 284 286 288 289 291 294 294 293 295 296 295 294 295 295 297 299 301 301 297 293 292 290 286 284 285 280 275 279 279 275 276 280 281 285 286 286 289 289 281 280 282 282 284 285 286 288 287 280 278 280 281 282 284 281 277 273 271 271 270 267
320 319 321 323 325 325 325 327 329 332 334 335 333 332 335 337 336 334 329 323 316 306 297 292 289 288 289 290 290 292 296 297 298 300 299 296 294 294 294 294 294 293 291 288 287 287 283 278 280 283 279 277 283 285 281 281 283 280 280 283 287 291 287 273 273 283 286 289 290 288 290 291 285 282 284 286 287 288 286 283 279 276 274 273 272
319 321 324 327 329 331 332 335 339 344 346 344 339 337 336 335 334 334 331 324 316 307 298 292 290 291 291 292 293 295 297 300 302 302 300 298 296 296 296 297 296 293 287 282 281 281 278 273 273 275 274 276 284 288 287 285 285 283 279 277 278 282 281 271 264 273 282 290 293 288 287 289 287 285 285 285 287 288 286 283 281 280 278 276 275
321 325 331 334 336 338 340 342 342 342 342 340 336 334 332 329 329 329 326 322 316 310 303 297 294 294 294 295 296 297 298 300 302 301 299 297 295 294 295 295 293 290 286 282 277 276 277 275 270 270 274 277 279 284 290 291 289 285 280 277 277 275 272 268 267 273 280 285 287 285 284 285 285 284 283 283 284 285 285 282 280 280 279 277 276
331 334 337 336 336 336 335 335 336 335 336 337 336 337 335 332 328 325 321 317 311 307 305 301 298 295 294 295 297 298 300 302 303 302 299 295 292 292 292 290 289 287 284 282 278 274 274 275 274 275 281 283 280 284 290 290 286 283 280 281 283 278 272 270 271 275 277 278 278 278 279 280 282 282 281 282 284 284 283 283 282 281 278 276 278
338 336 332 325 321 323 325 330 335 336 339 341 340 339 338 336 333 330 325 317 310 306 304 302 300 297 296 296 298 299 300 301 301 301 298 294 292 290 287 285 285 284 280 277 277 276 275 275 275 277 281 282 282 285 288 286 283 281 281 281 281 279 277 277 276 276 276 276 272 263 262 273 277 276 278 283 286 286 286 285 284 283 281 278 278
329 322 316 312 313 319 325 331 333 334 336 339 338 336 336 336 336 335 331 323 315 309 307 306 306 303 301 300 300 301 300 299 300 300 298 296 290 284 280 277 277 278 276 275 277 279 278 273 269 270 274 276 277 278 279 280 280 283 286 286 282 277 274 274 274 273 275 278 274 257 250 266 273 272 275 281 284 286 288 286 282 282 283 280 278
309 303 302 307 316 322 326 329 328 326 331 339 342 340 338 337 334 331 328 323 316 312 311 311 310 308 305 304 303 303 302 301 302 301 298 293 283 278 277 277 279 281 280 280 284 286 285 279 275 275 278 279 278 277 276 275 276 283 289 289 286 281 272 266 264 267 270 275 276 262 247 256 267 269 271 278 281 282 286 285 281 281 282 281 279
296 296 298 305 317 323 324 325 326 327 333 344 349 341 335 332 328 322 317 315 313 311 310 310 308 306 302 300 299 298 296 297 298 298 295 289 282 279 278 279 284 285 283 286 292 294 293 291 288 287 286 284 283 282 280 277 276 279 281 280 280 278 272 264 264 269 269 270 272 267 251 250 264 267 268 275 279 277 279 282 284 285 286 286 285
297 299 298 300 310 319 323 327 333 339 343 345 341 330 327 331 328 321 316 317 318 317 316 313 310 309 306 304 303 300 295 293 291 290 287 282 277 274 272 274 278 280 283 288 293 294 294 294 294 292 290 289 287 286 284 280 277 276 275 274 274 269 264 262 263 266 266 267 271 268 251 246 258 263 262 265 274 277 278 280 285 288 288 289 289